[[{"header":{"parameterUnit":"m.s-1","parameterCategory":1,"la1":30.2991,"la2":30.254,"lo1":-89.0895,"lo2":-89.0444,"dy":0.0017,"dx":0.0017,"nx":28,"ny":28,"refTime":"2024-07-08T03:00:00:Z","depth":0,"parameterNumber":2,"parameterNumberName":"U-component_of_WINDS"},"data":[0,0,0,0,0,0,0,0,0,0,0,0,0,0,0,0,0,0,0,0,0,0,0,0,0,0,0,0,0,0,0,0,0,0,0,0,0,0,0,0,0,0,0,0,0,0,0,0,0,0,0,0,0,0,0,0,0,0,3.8027,3.8028,0,3.8099,3.81,3.8101,3.8068,3.8066,3.8064,3.8062,3.8134,3.8138,3.8141,0,0,0,0,0,0,0,0,0,0,0,0,0,3.7858,3.7861,3.8027,3.8028,3.8029,3.8099,3.81,3.8101,3.8068,3.8066,3.8064,3.8061,3.8133,3.8138,3.8142,0,0,0,0,0,0,0,0,0,0,0,0,0,3.7931,3.7862,3.8027,3.8021,3.8021,3.8099,3.81,3.8101,3.8068,3.8066,3.8063,3.806,3.8132,3.8137,3.8142,3.823,0,0,3.8159,3.8161,0,0,0,0,0,0,0,0,3.7927,3.7937,3.8021,3.8021,3.8022,3.8072,3.8067,3.8144,3.8069,3.805,3.8062,3.8059,3.8116,3.8122,3.8142,3.8233,3.8236,3.8159,3.8163,3.8165,3.8167,0,0,0,0,0,0,0,3.7922,3.7934,3.8055,3.8022,3.8022,3.8014,3.8021,3.8081,3.8097,3.8052,3.8049,3.8059,3.8115,3.8136,3.8143,3.8237,3.8159,3.8164,3.8167,3.8169,3.8403,3.8405,0,0,0,0,0,0,3.7917,3.793,3.8053,3.8057,3.7967,3.8019,3.8027,3.8058,3.8096,3.81,3.8061,3.8057,3.8129,3.8137,3.8145,3.8249,3.8165,3.817,3.8173,3.84,3.8403,3.8406,0,0,0,0,0,0,3.7914,3.7928,3.805,3.7993,3.8008,3.8025,3.806,3.8061,3.8082,3.8103,3.8106,3.808,3.8127,3.8138,3.8209,3.8251,3.8172,3.8177,3.8396,3.8401,3.8405,3.8457,0,0,0,0,0,0,3.7909,3.7927,3.7961,3.7994,3.8011,3.8113,3.8063,3.8064,3.8092,3.8087,3.8122,3.8125,3.8125,3.8201,3.8214,3.8257,3.8182,3.8392,3.8398,3.8403,3.8452,3.8463,3.8472,0,0,0,0,0,3.7903,3.7973,3.7963,3.7978,3.8054,3.8116,3.8125,3.8125,3.8095,3.8129,3.8142,3.8124,3.8245,3.8209,3.8223,3.8268,3.839,3.8397,3.8403,3.8447,3.8461,3.8472,0,0,0,0,0,0,3.7944,3.7977,3.7967,3.805,3.808,3.811,3.8152,3.814,3.8179,3.8173,3.8171,3.8179,3.8252,3.8267,3.8227,3.8354,3.8312,3.8322,3.8341,3.8354,3.8364,3.8358,3.8186,0,0,0,0,0,3.7963,3.8011,3.8037,3.8108,3.8124,3.8136,3.8163,3.816,3.8191,3.8204,3.8222,3.8253,3.8297,3.8327,3.8369,3.8454,3.846,3.8492,3.8503,3.8511,3.8519,3.8564,3.8578,3.8428,3.8428,3.8428,0,0,3.8002,3.8026,3.8057,3.8117,3.814,3.8189,3.8147,3.82,3.8236,3.8212,3.8279,3.8294,3.8328,3.8406,3.8441,3.8421,3.8562,3.852,3.8526,3.853,3.8572,3.8586,3.8598,3.8433,3.8432,3.8431,0,0,3.8098,3.8122,3.8183,3.8207,3.8243,3.825,3.8265,3.8297,3.8306,3.8374,3.8356,3.8399,3.8476,3.8501,3.8523,3.8628,3.8611,3.8642,3.8695,3.8739,3.875,3.8761,3.8796,3.8809,3.865,3.8651,3.8651,0,3.8142,3.8216,3.8215,3.827,3.8297,3.8278,3.8338,3.8362,3.8409,3.8428,3.8405,3.8501,3.8522,3.8605,3.863,3.865,3.8665,3.8637,3.8749,3.8759,3.8769,3.8803,3.8817,3.8654,3.8653,3.8653,3.8653,0,3.8267,3.8318,3.8363,3.841,3.8441,3.8499,3.8506,3.8538,3.8533,3.8543,3.8612,3.8637,3.8683,3.8703,3.8699,3.8785,3.8771,3.8749,3.8707,3.8786,3.8818,3.8831,3.8659,3.8657,3.8656,3.8656,0,0,3.839,3.8436,3.8452,3.8473,3.8511,3.855,3.8607,3.8652,3.8679,3.8713,3.8759,3.8825,3.8804,3.883,3.8828,3.8866,3.8945,3.8839,3.8839,3.8856,3.904,3.9055,3.907,3.8935,3.8938,3.894,3.9037,0,3.8487,3.8586,3.8588,3.8678,3.8725,3.8707,3.8756,3.8784,3.8795,3.8835,3.8846,3.8892,3.8863,3.8878,3.8915,3.8928,3.8982,3.8921,3.8977,3.8979,3.8967,3.9087,3.9104,3.9194,3.9049,3.9051,3.9053,0,3.8614,3.8651,3.8747,3.8777,3.8797,3.8841,3.8882,3.8922,3.8953,3.8958,3.8987,3.8979,3.9035,3.8992,3.9069,3.9028,3.905,3.906,3.9064,3.9067,3.9019,3.9092,3.9223,3.9235,3.9073,3.9071,3.907,0,3.8691,3.8766,3.8833,3.8851,3.8889,3.892,3.8937,3.8966,3.8993,3.903,3.9047,3.9089,3.9112,3.9145,3.9148,3.9117,3.9225,3.9183,3.9229,3.9229,3.9251,3.9249,3.9384,3.9269,3.9269,3.9268,3.9268,0,3.8799,3.8857,3.8868,3.8909,3.8973,3.8974,3.9038,3.9052,3.9078,3.912,3.9108,3.9148,3.9151,3.9192,3.9195,3.9257,3.9267,3.9272,3.9272,3.9272,3.9271,3.9285,3.9279,3.9272,3.9271,3.927,3.927,0,3.8895,3.8905,3.8976,3.9007,3.9016,3.9062,3.9087,3.9125,3.9135,3.9188,3.9201,3.9216,3.9263,3.927,3.9325,3.9327,3.9401,3.9395,3.939,3.9389,3.9433,3.9428,3.9582,3.9601,3.9474,3.9476,3.9477,0,3.8962,3.9007,3.9042,3.907,3.9089,3.9134,3.9161,3.9164,3.9193,3.9232,3.9265,3.9311,3.9348,3.9424,3.9439,3.9481,3.9475,3.9526,3.9481,3.9479,3.9473,3.947,3.9473,3.9533,3.9535,3.9536,3.9537,0,3.9079,3.9082,3.9123,3.9165,3.9199,3.9232,3.9264,3.9287,3.9294,3.9327,3.9375,3.9404,3.946,3.9506,3.9547,3.9564,3.9551,3.9551,3.9564,3.9563,3.9558,3.956,3.9412,3.9547,3.9546,3.9545,3.9545,3.9544,3.9162,3.92,3.9231,3.9276,3.9301,3.933,3.9367,3.9382,3.9422,3.9468,3.9468,3.952,3.9549,3.9604,3.9623,3.9664,3.9647,3.9666,3.967,3.9674,3.9677,3.9553,3.9672,3.9671,3.9671,3.9671,3.9671,0,3.9277,3.9295,3.9338,3.9382,3.9418,3.9404,3.9438,3.9468,3.9515,3.9544,3.958,3.9635,3.9679,3.9698,3.974,3.9769,3.9764,3.978,3.9777,3.978,3.9691,3.9675,3.9783,3.9783,3.9783,3.9783,3.9783,3.9783,3.934,3.9404,3.941,3.9485,3.9503,3.9555,3.9576,3.9602,3.9625,3.9687,3.9724,3.9736,3.976,3.9804,3.9844,3.9848,3.9863,3.9881,3.9883,3.9798,3.9787,3.9776,3.9761,3.9885,3.9885,3.9968,3.9969,3.997]},{"header":{"parameterUnit":"m.s-1","parameterCategory":1,"la1":30.2991,"la2":30.254,"lo1":-89.0895,"lo2":-89.0444,"dy":0.0017,"dx":0.0017,"nx":28,"ny":28,"refTime":"2024-07-08T03:00:00:Z","depth":0,"parameterNumber":3,"parameterNumberName":"V-component_of_WINDS"},"data":[0,0,0,0,0,0,0,0,0,0,0,0,0,0,0,0,0,0,0,0,0,0,0,0,0,0,0,0,0,0,0,0,0,0,0,0,0,0,0,0,0,0,0,0,0,0,0,0,0,0,0,0,0,0,0,0,0,0,6.9619,6.962,0,6.9671,6.9671,6.9672,6.9616,6.9614,6.9612,6.961,6.9657,6.966,6.9663,0,0,0,0,0,0,0,0,0,0,0,0,0,6.9467,6.947,6.9619,6.962,6.9621,6.9671,6.9671,6.9672,6.9616,6.9614,6.9611,6.9609,6.9656,6.966,6.9663,0,0,0,0,0,0,0,0,0,0,0,0,0,6.9527,6.9471,6.9619,6.9599,6.9598,6.9671,6.9671,6.9672,6.9617,6.9614,6.9611,6.9608,6.9655,6.9659,6.9664,6.9757,0,0,6.9679,6.9681,0,0,0,0,0,0,0,0,6.9524,6.9533,6.9601,6.9601,6.9599,6.9634,6.9635,6.9701,6.9618,6.961,6.961,6.9606,6.9651,6.9656,6.9673,6.976,6.9762,6.9679,6.9682,6.9684,6.9686,0,0,0,0,0,0,0,6.952,6.953,6.9639,6.9602,6.9601,6.9585,6.959,6.9647,6.9647,6.961,6.9606,6.9613,6.965,6.9668,6.9673,6.9762,6.9679,6.9683,6.9686,6.9688,6.9927,6.9931,0,0,0,0,0,0,6.9519,6.9527,6.9638,6.9641,6.9553,6.9591,6.9596,6.9626,6.9647,6.9647,6.9616,6.9611,6.9662,6.9668,6.9675,6.9785,6.9684,6.9689,6.9691,6.9924,6.9928,6.9932,0,0,0,0,0,0,6.9515,6.9529,6.9636,6.9583,6.9596,6.9597,6.963,6.9629,6.9647,6.9651,6.965,6.9635,6.9659,6.9668,6.9737,6.9786,6.9691,6.9695,6.992,6.9925,6.993,7.0007,0,0,0,0,0,0,6.9511,6.9528,6.9565,6.9584,6.9599,6.97,6.9633,6.9632,6.9656,6.9649,6.9669,6.9669,6.9657,6.9731,6.9742,6.9791,6.9699,6.9915,6.9922,6.9928,7.0,7.0014,7.0026,0,0,0,0,0,6.9506,6.9584,6.9567,6.9581,6.9645,6.9703,6.971,6.9697,6.966,6.9696,6.9699,6.9668,6.9779,6.9738,6.9751,6.9802,6.9912,6.992,6.9928,6.9994,7.0011,7.0025,0,0,0,0,0,0,6.9568,6.9586,6.9568,6.9654,6.9678,6.9693,6.9738,6.9716,6.9749,6.9741,6.9722,6.9726,6.98,6.9808,6.9762,6.9893,6.9839,6.985,6.9885,6.9901,6.9914,6.991,6.9703,0,0,0,0,0,6.9592,6.9639,6.9651,6.9726,6.9739,6.9737,6.9761,6.975,6.9772,6.9781,6.9789,6.981,6.985,6.9876,6.9913,7.0001,7.0003,7.0042,7.0055,7.0065,7.0074,7.0121,7.0138,6.9957,6.9957,6.9957,0,0,6.9641,6.9657,6.9687,6.9739,6.9756,6.9803,6.9745,6.9798,6.9832,6.9788,6.9855,6.9861,6.9884,6.9963,6.9998,6.9971,7.0125,7.0075,7.0084,7.0087,7.013,7.0147,7.0163,6.9963,6.9962,6.9961,0,0,6.9755,6.9773,6.9837,6.9855,6.9882,6.988,6.9895,6.9915,6.9918,6.9985,6.9953,6.9992,7.0061,7.0078,7.0096,7.0217,7.0189,7.0229,7.0297,7.0342,7.0356,7.0368,7.0411,7.0426,7.0238,7.0238,7.0239,0,6.9813,6.9885,6.9872,6.9927,6.995,6.9915,6.9978,6.9996,7.0032,7.0048,7.0018,7.0104,7.0116,7.0199,7.0228,7.0244,7.026,7.0226,7.0355,7.0368,7.0379,7.0419,7.0435,7.0243,7.0243,7.0242,7.0242,0,6.9954,7.0004,7.0052,7.0091,7.0119,7.0178,7.0172,7.0202,7.0188,7.0189,7.0257,7.0271,7.0309,7.0328,7.0314,7.0408,7.0391,7.0359,7.0304,7.0401,7.0438,7.0454,7.025,7.0248,7.0247,7.0246,0,0,7.0107,7.0139,7.0157,7.0173,7.02,7.0238,7.0295,7.0334,7.036,7.0386,7.0432,7.0491,7.0462,7.0482,7.0469,7.0509,7.0603,7.0472,7.0472,7.0495,7.0707,7.073,7.0748,7.0586,7.0589,7.0591,7.0705,0,7.0221,7.0323,7.0313,7.0408,7.0453,7.042,7.0469,7.049,7.0492,7.053,7.0531,7.0573,7.0532,7.0543,7.0582,7.0584,7.0645,7.0576,7.0626,7.0628,7.0621,7.0768,7.0793,7.09,7.0719,7.0722,7.0723,0,7.0368,7.0402,7.0502,7.0522,7.0541,7.0586,7.0621,7.0658,7.068,7.0678,7.0702,7.0682,7.0737,7.0683,7.0758,7.071,7.073,7.0735,7.0739,7.0742,7.0681,7.0774,7.0934,7.0949,7.0746,7.0745,7.0743,0,7.0469,7.0539,7.0608,7.0624,7.0649,7.0681,7.0693,7.0712,7.0736,7.0767,7.0782,7.0818,7.0837,7.0864,7.0854,7.0816,7.093,7.0875,7.0929,7.093,7.0954,7.0952,7.1118,7.0969,7.0969,7.0968,7.0968,0,7.0597,7.066,7.0654,7.0697,7.0765,7.0752,7.0819,7.0826,7.0844,7.0886,7.0859,7.0898,7.0883,7.092,7.0913,7.0975,7.0984,7.0983,7.098,7.0985,7.0985,7.0997,7.0989,7.0973,7.0972,7.0971,7.097,0,7.0721,7.0721,7.0794,7.0812,7.0818,7.0867,7.0882,7.0921,7.0921,7.0974,7.0985,7.0985,7.1028,7.1022,7.1069,7.1063,7.1141,7.1129,7.1134,7.1131,7.1185,7.118,7.1364,7.1386,7.1224,7.1225,7.1226,0,7.0803,7.0851,7.0875,7.0902,7.0916,7.096,7.0985,7.0974,7.1001,7.103,7.1065,7.1106,7.1138,7.1208,7.1211,7.1246,7.1235,7.1296,7.124,7.1243,7.1234,7.1231,7.1235,7.1307,7.1309,7.1311,7.1312,0,7.0947,7.0945,7.0983,7.1022,7.1054,7.1083,7.1109,7.1132,7.1123,7.1154,7.1199,7.1224,7.1273,7.1314,7.1347,7.1357,7.1333,7.133,7.1344,7.1349,7.135,7.1349,7.1164,7.1326,7.1324,7.1323,7.1323,7.1322,7.1052,7.1092,7.1116,7.116,7.1179,7.1204,7.1241,7.1247,7.1285,7.1325,7.1316,7.1366,7.1386,7.1429,7.1442,7.148,7.1457,7.1478,7.1483,7.1488,7.1494,7.1345,7.1486,7.1486,7.1485,7.1485,7.1485,0,7.1194,7.1208,7.1248,7.1287,7.1321,7.1298,7.1325,7.1355,7.14,7.1422,7.1455,7.1505,7.1545,7.1551,7.1588,7.1617,7.1606,7.1627,7.1624,7.1626,7.1513,7.1497,7.1634,7.1634,7.1634,7.1634,7.1634,7.1634,7.1272,7.1339,7.134,7.1415,7.1428,7.1478,7.1496,7.1519,7.1536,7.1595,7.1628,7.1633,7.1648,7.1685,7.172,7.172,7.1735,7.1759,7.1755,7.1649,7.1634,7.162,7.1604,7.1762,7.1763,7.1865,7.1866,7.1867]}]]